User: anonymous   Login
Location: Unspecified
(0.0000°N, 0.0000°E)
Time: 01:55:49
(UTC+00:00)
Language:

LAPAN A2 - Orbit

View from above orbital plane
View from above orbital plane
View from above satellite
View from above satellite

Ground track
Ground track

The orbit data is extracted from the following two-line orbital elements,

1 40931U 15052B   17147.91292206 +.00000682 +00000-0 +59158-5 0  9990
2 40931 006.0003 017.2851 0013749 318.6464 041.2756 14.76528478089967
Epoch (UTC): 27 May 2017 21:54:36
Eccentricity: 0.0013749
inclination: 6.0003°
perigee height: 630 km
apogee height: 650 km
right ascension of ascending node: 17.2851°
argument of perigee: 318.6464°
revolutions per day: 14.76528478
mean anomaly at epoch: 41.2756°
orbit number at epoch: 8996

The dashed part of the orbit path shows where the satellite is in the earth's shadow,  

DLR